Date,TemperatureHighF,TemperatureAvgF,TemperatureLowF,DewpointHighF,DewpointAvgF,DewpointLowF,HumidityHigh,HumidityAvg,HumidityLow,PressureMaxIn,PressureMinIn,WindSpeedMaxMPH,WindSpeedAvgMPH,GustSpeedMaxMPH,PrecipitationSumIn
2013-1-1,51,41,33,38,34,31,91,78,55,30.32,30.25,16,2,16,0.00
2013-1-2,56,40,30,37,32,28,94,77,43,30.29,30.15,5,1,7,0.00
2013-1-3,55,40,31,42,35,29,93,81,60,30.29,30.20,8,1,9,0.00
2013-1-4,56,43,33,39,35,31,94,78,48,30.30,30.18,7,1,9,0.01
2013-1-5,53,43,35,45,40,33,97,89,72,30.27,30.07,6,1,10,0.19
2013-1-6,47,43,37,44,42,36,97,95,86,30.21,30.09,10,2,13,0.08
2013-1-7,59,44,33,47,40,33,98,89,64,30.27,30.16,5,1,7,0.01
2013-1-8,58,45,38,47,42,36,98,89,66,30.26,30.13,6,1,7,0.01
2013-1-9,52,44,38,49,41,35,98,89,71,30.18,29.98,9,2,23,0.02
2013-1-10,50,42,35,36,34,30,90,72,49,30.20,30.07,6,2,13,0.00
2013-1-11,50,41,32,41,34,29,94,78,56,30.27,30.13,10,1,15,0.04
2013-1-12,49,40,32,36,30,24,94,70,38,30.27,30.14,7,1,8,0.01
2013-1-13,48,37,26,29,22,12,92,61,28,30.30,30.18,9,2,16,0.00
2013-1-14,52,42,34,26,17,10,72,38,20,30.42,30.25,13,4,20,0.00
2013-1-15,53,39,30,32,28,25,84,65,42,30.49,30.41,6,1,9,0.00
2013-1-16,58,41,30,36,31,27,90,71,39,30.47,30.28,5,1,8,0.00
2013-1-17,63,44,30,38,32,28,90,68,32,30.31,30.16,9,1,10,0.00
2013-1-18,64,45,32,38,32,29,90,66,28,30.27,30.14,9,1,9,0.00
2013-1-19,61,45,32,37,33,29,87,68,39,30.28,30.18,9,1,10,0.00
2013-1-20,64,45,32,37,32,27,90,66,28,30.27,30.14,7,1,11,0.00
2013-1-21,65,45,31,41,35,28,89,72,42,30.20,30.11,6,1,8,0.00
2013-1-22,60,46,33,43,38,31,91,75,50,30.15,30.02,7,1,12,0.00
2013-1-23,54,49,45,50,45,42,95,88,74,30.11,29.99,8,1,10,0.07
2013-1-24,58,52,48,52,50,47,96,93,78,30.20,30.08,5,1,7,0.09
2013-1-25,66,56,50,56,52,48,98,88,70,30.20,30.04,9,1,12,0.01
2013-1-26,58,50,44,50,44,38,98,83,49,30.09,29.99,10,3,15,0.00
2013-1-27,56,46,37,40,36,29,91,71,38,30.19,30.08,7,2,11,0.00
2013-1-28,57,47,38,42,38,34,88,72,47,30.30,30.18,9,2,12,0.00
2013-1-29,60,47,38,44,40,35,91,77,47,30.37,30.27,8,1,12,0.00
2013-1-30,66,51,42,43,40,38,91,69,39,30.35,30.26,7,1,10,0.00
2013-1-31,66,49,37,47,42,35,92,77,51,30.30,30.19,8,1,9,0.00
2013-2-1,66,50,38,47,43,36,94,78,52,30.24,30.14,8,1,10,0.00
2013-2-2,64,50,42,50,45,41,95,84,59,30.31,30.23,8,1,12,0.00
2013-2-3,61,50,43,46,44,41,95,81,59,30.27,30.15,6,2,9,0.00
2013-2-4,65,49,39,52,44,37,97,85,56,30.21,30.07,10,2,13,0.00
2013-2-5,55,50,44,47,44,41,96,83,69,30.16,30.08,9,3,14,0.00
2013-2-6,60,47,37,45,41,35,95,81,53,30.21,30.13,7,1,12,0.01
2013-2-7,55,45,38,46,40,36,94,82,53,30.21,30.02,12,2,15,0.04
2013-2-8,54,44,37,41,38,34,95,82,55,30.03,29.96,11,2,15,0.02
2013-2-9,58,44,33,34,30,25,90,63,30,30.14,30.02,9,2,13,0.00
2013-2-10,60,45,32,38,34,29,88,68,39,30.17,30.05,9,2,18,0.00
2013-2-11,62,47,35,37,32,24,89,62,25,30.26,30.10,9,2,15,0.00
2013-2-12,62,47,34,41,36,31,87,69,43,30.37,30.26,7,2,10,0.00
2013-2-13,66,49,36,45,38,33,90,68,33,30.36,30.22,7,1,11,0.00
2013-2-14,71,53,39,44,40,36,90,65,31,30.26,30.17,12,2,16,0.00
2013-2-15,70,54,41,46,41,37,87,66,38,30.28,30.22,6,2,11,0.00
2013-2-16,68,53,40,49,44,38,92,73,45,30.27,30.07,6,1,8,0.00
2013-2-17,66,52,42,47,44,38,96,75,37,30.09,29.98,8,3,13,0.00
2013-2-18,52,47,40,43,40,37,93,79,62,30.05,29.98,13,4,15,0.00
2013-2-19,48,43,36,43,38,33,91,82,65,29.99,29.75,16,2,21,0.39
2013-2-20,60,45,33,43,36,31,93,73,36,30.09,29.87,8,2,14,0.01
2013-2-21,61,47,35,39,35,29,93,69,31,30.20,30.07,10,2,21,0.00
2013-2-22,63,48,36,45,38,33,91,73,37,30.27,30.20,11,2,15,0.00
2013-2-23,59,50,41,46,38,31,93,68,35,30.28,30.18,11,4,16,0.01
2013-2-24,63,49,38,35,27,16,83,47,17,30.29,30.19,13,3,17,0.00
2013-2-25,64,49,36,46,38,30,88,68,42,30.29,30.17,10,3,14,0.00
2013-2-26,68,51,36,38,31,19,92,56,16,30.24,30.14,14,3,17,0.00
2013-2-27,70,52,37,45,37,32,88,61,28,30.38,30.23,7,2,12,0.00
2013-2-28,69,54,43,53,47,40,91,78,56,30.46,30.38,8,2,14,0.00
2013-3-1,74,57,44,51,47,42,94,73,42,30.45,30.25,7,1,10,0.00
2013-3-2,72,58,47,52,48,44,90,71,50,30.27,30.07,8,2,11,0.00
2013-3-3,64,54,48,49,47,45,89,77,54,30.12,30.04,12,4,18,0.00
2013-3-4,60,50,45,47,44,41,91,82,62,30.16,30.06,14,4,15,0.00
2013-3-5,59,51,44,44,42,38,89,72,49,30.09,29.86,18,5,28,0.05
2013-3-6,55,50,40,46,41,37,89,73,53,30.09,29.85,19,4,38,0.13
2013-3-7,58,48,38,45,39,34,92,74,45,30.02,29.87,7,1,11,0.02
2013-3-8,60,50,41,45,42,38,94,77,51,30.07,29.84,10,2,17,0.01
2013-3-9,68,52,38,44,40,35,94,68,30,30.33,30.08,12,2,16,0.00
2013-3-10,70,54,37,44,36,28,92,58,22,30.38,30.27,10,2,14,0.00
2013-3-11,74,56,40,46,40,36,85,59,28,30.28,30.11,9,2,13,0.00
2013-3-12,77,59,44,50,45,40,86,63,36,30.16,30.07,7,2,11,0.00
2013-3-13,78,62,47,55,50,45,92,68,44,30.17,30.06,8,2,12,0.00
2013-3-14,74,61,50,57,51,47,92,72,42,30.16,30.09,10,2,13,0.00
2013-3-15,74,60,48,53,48,44,89,66,45,30.14,30.04,11,3,15,0.00
2013-3-16,73,56,47,53,48,46,97,77,43,30.12,30.04,11,4,16,0.00
2013-3-17,70,55,44,46,44,40,90,68,35,30.17,30.05,9,2,17,0.00
2013-3-18,68,54,42,48,44,40,90,71,46,30.12,29.53,8,3,13,0.00
2013-3-19,72,56,47,47,44,39,89,68,35,29.64,29.57,12,3,17,0.03
2013-3-20,65,55,50,55,51,46,94,85,57,29.64,29.58,10,3,16,0.02
2013-3-21,66,54,43,50,43,37,93,70,35,29.64,29.51,11,3,15,0.00
2013-3-22,69,54,40,42,27,7,91,47,9,29.62,29.53,19,4,23,0.00
2013-3-23,70,54,39,37,31,21,77,48,18,29.66,29.55,9,2,13,0.00
2013-3-24,73,55,42,48,41,36,86,63,34,29.61,29.47,9,2,14,0.00
2013-3-25,61,51,44,46,44,41,92,77,52,29.52,29.45,10,4,17,0.00
2013-3-26,69,55,48,49,45,43,85,71,45,29.52,29.43,8,4,14,0.00
2013-3-27,66,56,48,52,48,43,87,76,58,29.53,29.46,11,3,16,0.00
2013-3-28,72,58,54,55,53,51,95,83,49,29.59,29.52,6,1,8,0.04
2013-4-5,64,59,53,53,51,49,91,75,59,30.20,29.63,12,4,15,0.00
2013-4-6,66,57,53,55,52,50,91,82,66,30.22,30.14,13,3,15,0.00
2013-4-7,64,56,51,53,50,46,93,81,62,30.19,29.86,16,4,21,0.12
2013-4-8,68,55,46,50,36,23,91,55,19,30.03,29.82,19,8,26,0.02
2013-4-9,75,61,46,41,33,25,76,40,16,30.10,30.03,16,5,25,0.00
2013-4-10,86,68,52,54,45,35,89,46,27,30.18,30.02,14,4,18,0.00
2013-4-11,71,59,50,51,49,46,92,73,44,30.05,29.85,12,5,18,0.00
2013-4-12,77,58,45,52,47,43,92,71,36,29.93,29.83,15,5,17,0.00
2013-4-13,67,56,48,50,46,44,89,72,51,29.92,29.83,16,5,18,0.00
2013-4-14,66,55,44,47,43,38,90,67,36,29.95,29.86,11,4,16,0.00
2013-4-15,61,52,46,47,40,32,91,67,39,29.96,29.86,20,4,27,0.00
2013-4-16,67,54,39,37,31,19,82,47,16,30.16,29.97,14,4,21,0.00
2013-4-17,69,58,46,35,28,20,58,34,16,30.29,30.17,15,5,22,0.00
2013-4-18,76,59,43,41,35,31,74,45,20,30.30,30.18,10,2,15,0.00
2013-4-19,82,64,47,51,45,39,76,53,27,30.25,30.07,10,3,17,0.00
2013-4-20,80,64,49,49,44,36,86,54,21,30.12,29.98,14,3,18,0.00
2013-4-21,87,68,49,47,42,33,82,46,15,30.05,29.92,9,2,17,0.00
2013-4-22,88,70,53,48,43,31,76,44,13,29.97,29.84,13,3,17,0.00
2013-4-23,83,68,51,48,33,20,80,33,11,29.93,29.84,16,5,25,0.00
2013-4-24,71,58,47,51,46,42,87,67,41,29.95,29.82,17,5,24,0.00
2013-4-25,67,57,51,51,49,47,89,75,57,30.14,29.95,13,4,18,0.00
2013-4-26,74,58,49,54,49,46,90,73,45,30.23,30.14,12,4,18,0.00
2013-4-27,80,61,48,57,50,46,91,70,43,30.23,30.06,11,4,16,0.00
2013-4-28,88,68,49,57,51,46,91,60,29,30.07,29.87,9,2,11,0.00
2013-4-29,90,72,56,54,51,44,84,53,20,29.89,29.74,11,4,15,0.00
2013-4-30,85,68,53,52,41,18,87,47,11,29.84,29.77,9,3,15,0.00
2013-5-1,86,74,62,38,24,16,42,17,11,30.07,29.83,15,6,30,0.00
2013-5-2,91,73,54,42,34,20,61,30,10,30.16,30.05,9,2,13,0.00
2013-5-3,91,72,54,42,36,28,60,31,13,30.07,29.78,11,3,17,0.00
2013-5-4,88,71,55,50,41,31,79,39,14,29.78,29.52,9,3,17,0.00
2013-5-5,69,61,54,51,48,44,75,63,46,29.80,29.59,9,3,19,0.00
2013-5-6,70,61,54,53,51,47,86,69,47,29.97,29.81,7,2,13,0.00
2013-5-7,72,62,52,53,51,47,91,70,43,30.04,29.96,10,3,15,0.00
2013-5-8,67,57,53,52,50,49,90,79,55,30.15,30.03,12,4,17,0.00
2013-5-9,68,57,52,53,50,48,89,77,56,30.18,30.08,15,5,18,0.00
2013-5-10,75,58,51,57,52,48,93,80,53,30.19,30.09,13,6,19,0.00
2013-5-11,90,68,51,60,53,43,94,63,21,30.15,30.02,12,4,14,0.00
2013-5-12,84,68,55,58,54,49,83,62,38,30.13,30.01,13,5,16,0.00
2013-5-13,81,64,52,58,53,48,91,70,44,30.09,29.94,14,5,19,0.00
2013-5-14,72,60,52,54,50,46,90,71,46,30.02,29.93,13,6,21,0.00
2013-5-15,65,56,51,51,48,46,88,74,53,30.07,30.01,17,5,20,0.00
2013-5-16,68,58,52,56,52,49,94,80,56,30.04,29.96,12,5,22,0.00
2013-5-17,68,58,52,49,48,44,88,71,45,30.09,29.98,12,5,16,0.00
2013-5-18,74,61,51,53,50,47,86,70,41,30.14,30.08,12,4,17,0.00
2013-5-19,84,66,50,52,46,38,91,55,20,30.12,29.96,14,3,17,0.00
2013-5-20,89,69,52,50,43,29,84,47,12,30.00,29.91,15,4,18,0.00
2013-5-21,70,60,51,51,47,41,88,66,40,29.99,29.91,11,5,17,0.00
2013-5-22,68,55,44,45,36,22,83,53,18,30.02,29.91,12,4,19,0.00
2013-5-23,68,56,47,46,44,40,88,65,43,30.01,29.92,13,3,17,0.00
2013-5-24,70,57,48,48,44,39,90,67,32,30.01,29.95,12,4,19,0.00
2013-5-25,65,55,49,49,46,45,87,73,51,30.06,29.98,14,5,21,0.00
2013-5-26,69,59,52,54,51,49,92,76,53,30.14,30.06,13,5,19,0.00
2013-5-27,65,58,52,55,52,49,92,82,67,30.13,30.01,10,3,15,0.00
2013-5-28,71,62,56,57,54,52,95,79,57,30.01,29.92,10,4,19,0.01
2013-5-29,70,61,54,55,52,49,88,74,55,29.98,29.90,11,4,20,0.00
2013-5-30,76,61,50,50,49,45,92,67,39,30.00,29.94,14,4,19,0.00
2013-5-31,91,69,50,51,47,41,86,52,18,30.03,29.90,10,3,17,0.00
2013-6-1,94,74,56,54,50,44,76,47,19,29.92,29.74,8,3,15,0.00
2013-6-2,83,67,54,56,51,49,87,60,33,29.76,29.65,13,6,21,0.00
2013-6-3,77,63,53,55,52,49,88,69,44,29.84,29.70,14,5,19,0.00
2013-6-4,71,60,54,55,52,50,90,77,55,29.96,29.84,12,5,21,0.00
2013-6-5,73,60,53,53,51,50,89,74,49,30.00,29.89,13,5,20,0.00
2013-6-6,82,63,52,57,53,50,93,73,43,29.96,29.82,15,6,19,0.00
2013-6-7,100,74,53,62,56,50,95,60,29,29.87,29.70,10,4,15,0.00
2013-6-8,103,79,64,61,57,51,73,49,24,29.76,29.64,16,5,21,0.00
2013-6-9,74,63,57,57,55,53,88,75,56,29.87,29.75,11,5,19,0.00
2013-6-10,72,62,56,54,52,51,86,72,54,29.94,29.80,9,4,18,0.00
2013-6-11,78,64,54,56,53,49,90,71,46,29.97,29.88,13,3,16,0.00
2013-6-12,78,63,53,51,49,47,86,63,36,29.99,29.89,14,4,20,0.00
2013-6-13,81,64,50,52,49,46,89,62,31,30.09,29.99,11,4,18,0.00
2013-6-14,86,69,52,51,46,36,83,50,18,29.98,29.81,17,3,19,0.00
2013-6-15,73,60,52,53,50,48,91,73,49,30.00,29.82,13,6,21,0.00
2013-6-16,80,63,52,55,52,49,91,69,39,30.08,30.00,13,5,18,0.00
2013-6-17,75,62,53,57,53,50,91,75,51,30.09,30.02,12,5,17,0.00
2013-6-18,70,60,54,54,51,48,92,73,49,30.03,29.97,14,5,19,0.00
2013-6-19,75,62,51,51,49,46,88,64,38,30.05,29.99,12,4,19,0.00
2013-6-20,78,64,52,53,50,47,90,65,34,30.01,29.94,11,3,18,0.00
2013-6-21,82,65,51,54,50,43,90,64,29,29.97,29.90,16,4,17,0.00
2013-6-22,88,68,53,54,50,44,90,58,23,29.93,29.83,14,4,18,0.00
2013-6-23,70,61,55,61,57,53,96,87,72,29.89,29.81,14,4,16,0.00
2013-6-24,66,62,58,60,58,56,92,88,80,29.91,29.79,8,2,10,0.01
2013-6-25,78,68,62,65,61,57,91,80,65,29.98,29.89,9,3,15,0.01
2013-6-26,84,72,64,64,62,59,90,72,47,30.04,29.96,10,3,15,0.00
2013-6-27,93,74,59,64,60,57,94,66,33,30.06,29.98,8,3,15,0.00
2013-6-28,100,82,63,63,58,53,81,49,22,30.01,29.86,13,4,16,0.00
2013-6-29,102,83,66,60,57,52,71,44,23,29.89,29.75,10,4,17,0.00
2013-6-30,95,78,64,60,57,54,77,50,29,29.81,29.71,13,5,17,0.00
2013-7-1,98,80,63,62,57,52,79,49,27,29.80,29.76,11,4,17,0.00
2013-7-2,97,79,62,63,58,56,79,51,29,29.88,29.78,12,4,18,0.00
2013-7-3,97,79,62,61,57,52,82,52,28,29.87,29.73,9,4,18,0.00
2013-7-4,99,81,67,62,58,52,63,47,28,29.74,29.64,13,5,18,0.00
2013-7-5,73,62,56,55,53,50,88,73,52,29.79,29.69,14,7,21,0.00
2013-7-6,80,63,55,56,53,52,88,74,44,29.80,29.70,10,4,17,0.00
2013-7-7,86,67,54,56,53,50,92,67,30,29.84,29.75,13,4,18,0.00
2013-7-8,89,66,55,55,53,48,93,69,26,29.95,29.84,9,4,13,0.00
2013-7-9,99,77,59,57,52,32,85,49,10,30.00,29.88,12,3,16,0.00
2013-7-10,89,68,54,56,52,47,93,61,23,29.95,29.85,13,5,19,0.00
2013-7-11,77,61,54,55,52,51,92,76,46,29.94,29.86,13,5,18,0.00
2013-7-12,81,65,54,55,52,48,90,67,35,29.93,29.85,14,4,18,0.00
2013-7-13,88,70,55,55,51,45,87,56,27,29.94,29.87,11,4,15,0.00
2013-7-14,83,66,53,55,52,48,92,65,33,29.98,29.86,14,5,19,0.00
2013-7-15,75,59,53,55,52,51,93,79,48,29.92,29.82,12,5,18,0.00
2013-7-16,71,62,57,55,53,52,86,75,56,30.03,29.87,13,5,18,0.00
2013-7-17,80,65,55,57,55,53,90,73,45,30.10,30.00,14,5,18,0.00
2013-7-18,89,68,54,56,52,42,94,65,20,30.06,29.91,12,4,16,0.00
2013-7-19,88,68,54,58,54,51,93,67,34,29.93,29.78,14,5,19,0.00
2013-7-20,87,66,54,58,54,51,94,70,35,29.84,29.70,12,5,19,0.00
2013-7-21,87,68,54,58,54,51,93,67,37,29.86,29.74,12,4,16,0.00
2013-7-22,85,68,56,58,56,53,93,68,34,29.93,29.86,11,4,18,0.00
2013-7-23,85,72,62,58,53,45,78,55,27,29.98,29.91,9,4,15,0.00
2013-7-24,92,75,61,57,53,42,82,52,18,29.96,29.86,11,5,17,0.00
2013-7-25,84,70,60,56,52,46,81,56,31,30.00,29.90,17,6,20,0.00
2013-7-26,86,67,55,57,54,52,93,68,36,30.07,29.97,15,5,19,0.00
2013-7-27,81,65,55,59,55,53,95,74,45,30.01,29.83,12,5,16,0.00
2013-7-28,76,63,55,57,55,52,95,78,50,29.86,29.78,18,6,21,0.00
2013-7-29,76,62,56,56,54,52,90,75,49,29.99,29.83,9,5,16,0.00
2013-7-30,81,64,56,56,54,52,90,71,39,30.08,30.00,12,4,18,0.00
2013-7-31,77,62,54,56,53,51,93,74,44,30.08,29.99,16,6,20,0.00
2013-8-1,74,61,56,53,52,51,88,75,45,30.07,29.95,13,5,19,0.00
2013-8-2,82,64,55,55,53,51,92,71,36,29.98,29.87,14,5,19,0.00
2013-8-3,81,65,55,56,54,52,91,71,40,29.97,29.88,11,5,16,0.00
2013-8-4,78,61,54,56,54,51,94,78,45,30.00,29.92,14,5,19,0.00
2013-8-5,78,61,54,56,54,51,94,78,46,30.02,29.93,16,5,19,0.00
2013-8-6,73,60,54,55,54,52,93,80,54,30.04,29.97,16,5,17,0.00
2013-8-7,72,62,56,56,55,53,93,77,55,30.10,30.03,10,4,16,0.00
2013-8-8,76,63,56,58,55,53,93,79,53,30.03,29.93,10,4,17,0.00
2013-8-9,74,61,55,57,55,52,92,80,56,29.99,29.91,10,5,15,0.00
2013-8-10,77,63,56,58,56,53,92,79,51,30.05,29.98,12,4,18,0.00
2013-8-11,80,64,56,58,56,53,96,79,44,30.02,29.92,15,5,17,0.00
2013-8-12,85,67,56,57,54,51,93,67,34,29.98,29.92,11,4,15,0.00
2013-8-13,93,70,53,56,53,50,91,61,25,29.98,29.88,10,4,17,0.00
2013-8-14,84,66,55,60,56,52,92,72,36,29.97,29.89,13,5,17,0.00
2013-8-15,86,70,60,65,61,57,93,76,47,29.95,29.89,14,4,17,0.00
2013-8-16,88,71,60,64,60,54,96,72,34,29.97,29.90,14,5,16,0.00
2013-8-17,78,66,59,60,57,55,91,77,52,29.98,29.86,12,5,18,0.00
2013-8-18,98,75,57,64,58,52,93,61,22,29.88,29.74,9,2,11,0.00
2013-8-19,99,79,66,62,58,50,75,51,28,29.86,29.76,12,4,16,0.00
2013-8-20,88,70,59,60,56,52,91,65,35,29.86,29.77,14,4,20,0.00
2013-8-21,81,65,57,57,55,53,91,72,43,29.92,29.82,14,4,17,0.00
2013-8-22,76,64,57,56,55,53,89,74,48,29.96,29.87,17,5,18,0.00
2013-8-23,77,63,58,57,55,54,88,76,49,29.93,29.80,15,5,18,0.00
2013-8-24,80,66,57,59,57,54,90,75,49,29.89,29.84,12,4,19,0.00
2013-8-25,83,68,61,63,60,57,94,79,49,29.93,29.87,11,4,17,0.00
2013-8-26,81,67,59,59,57,56,90,73,47,30.00,29.88,10,4,17,0.00
2013-8-27,84,67,56,59,56,53,91,72,37,29.90,29.79,14,4,18,0.00
2013-8-28,85,69,59,63,60,57,94,76,43,29.93,29.85,11,4,15,0.00
2013-8-29,85,69,60,64,61,58,95,78,46,30.04,29.93,12,4,14,0.00
2013-8-30,93,74,61,63,61,55,95,69,29,30.03,29.89,12,4,17,0.00
2013-8-31,83,69,59,59,57,51,92,68,33,29.95,29.87,12,4,17,0.00
2013-9-1,84,68,59,61,58,55,90,72,39,29.93,29.86,9,4,15,0.00
2013-9-2,81,69,63,63,61,60,91,78,49,29.94,29.87,9,4,15,0.00
2013-9-3,78,67,59,60,57,50,90,72,38,29.99,29.91,11,4,16,0.00
2013-9-4,79,67,59,60,58,56,92,74,46,30.02,29.92,13,4,17,0.00
2013-9-5,80,67,60,59,57,54,88,73,44,30.00,29.93,10,3,16,0.00
2013-9-6,92,72,54,57,52,44,93,57,21,29.98,29.81,8,2,12,0.00
2013-9-7,96,76,58,52,49,43,76,44,18,29.87,29.77,9,2,13,0.00
2013-9-8,95,77,60,60,54,50,73,48,23,29.84,29.71,11,3,14,0.00
2013-9-9,96,76,62,60,53,46,71,49,22,29.79,29.66,11,4,17,0.00
2013-9-10,80,68,58,60,58,55,93,72,51,29.87,29.70,13,5,17,0.00
2013-9-11,76,66,60,59,58,56,87,76,56,29.98,29.87,10,4,14,0.00
2013-9-12,80,66,60,62,59,57,92,79,51,29.97,29.85,12,4,19,0.00
2013-9-13,80,64,58,59,57,55,94,79,48,29.90,29.74,13,5,19,0.00
2013-9-14,70,61,57,59,56,55,93,85,67,29.83,29.73,14,6,19,0.00
2013-9-15,79,65,57,59,56,53,91,76,48,29.87,29.79,11,5,17,0.00
2013-9-16,82,66,59,60,58,55,94,77,45,29.89,29.77,12,4,18,0.00
2013-9-17,75,65,59,56,55,52,88,73,45,29.87,29.82,15,4,17,0.00
2013-9-18,84,66,52,54,49,38,93,60,20,29.91,29.80,12,3,16,0.00
2013-9-19,92,70,52,54,45,38,78,49,15,29.85,29.72,8,2,12,0.00
2013-9-20,73,64,56,60,56,49,89,77,62,29.86,29.75,13,4,17,0.00
2013-9-21,68,62,56,60,57,53,93,83,63,29.89,29.80,9,3,13,0.48
2013-9-22,73,61,50,55,53,48,96,77,49,30.00,29.90,9,2,16,0.01
2013-9-23,83,66,52,60,55,50,93,71,36,30.03,29.91,9,2,16,0.00
2013-9-24,75,64,58,58,54,47,90,71,48,29.98,29.89,15,4,20,0.00
2013-9-25,69,60,53,49,46,44,81,63,40,29.93,29.81,15,4,16,0.00
2013-9-26,75,59,46,46,43,36,89,59,25,29.98,29.83,8,2,15,0.00
2013-9-27,78,62,48,45,40,33,78,49,20,30.10,29.99,9,2,14,0.00
2013-9-28,85,64,48,56,41,21,88,51,10,30.09,29.98,11,2,15,0.00
2013-9-29,76,64,55,59,57,53,93,78,53,30.11,30.04,7,2,12,0.00
2013-9-30,75,66,59,61,59,56,91,79,58,30.07,29.95,7,3,14,0.00
2013-10-1,73,61,50,56,51,47,91,71,49,30.01,29.91,9,2,14,0.00
2013-10-2,77,61,50,52,49,46,90,68,35,30.00,29.93,11,2,16,0.00
2013-10-3,73,61,46,48,37,28,87,48,19,30.07,29.94,14,4,24,0.00
2013-10-4,79,68,56,36,30,27,48,25,16,30.10,29.98,22,6,28,0.00
2013-10-5,84,65,48,38,34,25,64,36,13,30.21,30.10,7,2,11,0.00
2013-10-6,83,64,48,43,39,35,69,43,19,30.14,30.00,9,2,10,0.00
2013-10-7,84,65,51,51,39,26,74,44,13,30.00,29.86,10,2,13,0.00
2013-10-8,76,61,48,49,45,39,85,60,30,29.90,29.72,10,3,15,0.00
2013-10-9,69,58,48,49,46,42,91,68,41,29.76,29.63,13,3,17,0.00
2013-10-10,74,59,48,49,44,41,80,60,32,30.00,29.76,8,2,13,0.00
2013-10-11,72,58,48,52,48,44,93,73,45,30.08,29.96,8,3,13,0.00
2013-10-12,72,56,44,49,46,42,91,72,39,30.01,29.91,10,3,17,0.00
2013-10-13,74,59,46,51,44,38,93,64,28,30.07,29.93,9,3,15,0.00
2013-10-14,77,60,45,44,40,35,84,54,22,30.14,30.00,8,2,13,0.00
2013-10-15,79,61,45,40,37,30,75,46,17,30.05,29.95,10,2,14,0.00
2013-10-16,81,62,47,40,38,35,71,45,21,30.10,30.00,7,2,11,0.00
2013-10-17,82,63,47,41,37,31,72,43,17,30.09,29.95,10,2,11,0.00
2013-10-18,82,62,47,44,39,35,68,46,22,30.06,29.96,8,2,9,0.00
2013-10-19,83,63,47,45,42,40,81,51,23,30.08,29.98,6,1,10,0.00
2013-10-20,84,63,47,50,45,42,82,55,27,30.02,29.89,7,2,12,0.00
2013-10-21,80,62,48,53,49,46,92,66,34,30.00,29.89,6,2,9,0.00
2013-10-22,81,61,47,55,49,44,91,68,33,30.02,29.89,5,2,9,0.00
2013-10-23,79,58,47,55,49,44,94,77,43,29.97,29.87,11,3,17,0.00
2013-10-24,61,54,51,50,49,48,94,83,67,30.11,29.97,11,4,17,0.00
2013-10-25,74,59,50,52,49,47,92,73,41,30.18,30.07,8,2,11,0.00
2013-10-26,79,60,46,50,46,42,92,65,31,30.16,30.01,7,2,11,0.00
2013-10-27,57,53,48,50,48,45,95,83,72,30.02,29.67,21,6,32,0.00
2013-10-28,62,53,46,49,46,43,92,79,54,29.86,29.68,15,3,18,0.00
2013-10-29,64,56,47,50,47,44,88,74,51,30.06,29.86,8,2,13,0.00
2013-10-30,67,53,42,48,44,40,92,73,44,30.16,30.06,5,1,11,0.00
2013-10-31,73,56,43,46,43,40,91,67,33,30.20,30.07,9,1,11,0.00
2013-11-1,75,57,44,47,44,41,87,65,36,30.16,30.02,7,1,9,0.00
2013-11-2,73,56,44,52,46,40,89,73,44,30.03,29.90,11,2,15,0.00
2013-11-3,64,52,40,47,37,27,94,63,25,30.04,29.93,9,2,13,0.00
2013-11-4,68,53,38,39,32,25,87,51,20,30.05,29.92,13,2,16,0.00
2013-11-5,71,58,45,38,34,30,66,43,26,30.21,30.05,11,2,15,0.00
2013-11-6,71,56,44,42,39,37,78,56,29,30.25,30.17,7,1,11,0.00
2013-11-7,76,59,47,48,41,36,81,55,25,30.17,30.06,8,1,11,0.00
2013-11-8,75,58,45,52,46,40,87,69,34,30.08,29.95,9,2,13,0.00
2013-11-9,73,56,44,48,45,41,90,69,40,30.03,29.96,6,1,9,0.00
2013-11-10,70,55,44,51,47,41,92,75,43,30.11,30.03,7,2,10,0.00
2013-11-11,67,56,46,51,48,44,96,77,53,30.16,30.08,5,1,11,0.00
2013-11-12,73,60,50,50,47,43,82,64,37,30.26,30.15,9,2,13,0.00
2013-11-13,78,59,44,53,47,41,89,68,33,30.24,30.09,7,1,12,0.00
2013-11-14,70,55,48,55,50,46,95,84,58,30.10,29.86,15,3,15,0.00
2013-11-15,66,53,43,48,43,35,91,71,33,29.87,29.73,8,2,13,0.00
2013-11-16,64,52,44,49,45,41,93,79,48,29.93,29.75,10,2,14,0.00
2013-11-17,63,54,47,50,47,43,93,77,52,30.08,29.93,5,1,8,0.00
2013-11-18,60,50,43,48,45,41,92,82,58,30.15,30.08,8,2,12,0.00
2013-11-19,61,54,50,55,51,46,95,87,71,30.10,29.95,4,1,8,0.00
2013-11-20,60,56,52,57,55,51,97,94,89,29.95,29.84,4,0,7,0.00
2013-11-21,60,54,49,51,35,20,96,56,26,29.99,29.90,19,6,29,0.01
2013-11-22,69,58,48,29,18,8,47,22,13,30.03,29.89,16,5,24,0.00
2013-11-23,65,50,40,39,35,27,81,59,33,30.09,29.94,6,0,6,0.00
2013-11-24,64,48,37,43,39,35,93,74,43,30.24,30.09,7,0,9,0.00
2013-11-25,63,48,37,47,41,36,94,79,53,30.34,30.24,6,0,8,0.00
2013-11-26,62,49,40,44,42,38,93,77,48,30.26,30.03,7,0,9,0.00
2013-11-27,60,49,40,47,44,39,94,82,62,30.03,29.85,8,1,10,0.00
2013-11-28,68,52,41,44,42,40,95,74,40,30.07,29.86,7,0,11,0.00
2013-11-29,70,52,40,46,42,37,93,72,38,30.20,30.07,6,0,9,0.00
2013-11-30,67,50,40,46,42,38,93,76,44,30.26,30.18,8,1,10,0.00
2013-12-1,69,52,40,46,42,38,94,73,41,30.34,30.22,7,0,12,0.00
2013-12-2,63,51,40,51,46,38,94,83,61,30.22,29.96,11,2,17,0.00
2013-12-3,54,48,37,53,37,25,96,67,46,29.94,29.85,14,2,16,0.00
2013-12-4,51,38,29,27,21,14,77,54,24,30.09,29.93,8,1,13,0.00
2013-12-5,50,35,25,22,19,15,79,55,25,30.19,30.09,5,0,8,0.00
2013-12-6,51,40,27,46,31,21,93,71,42,30.20,29.90,13,1,20,0.33
2013-12-7,47,41,31,44,31,23,93,68,42,30.27,29.91,11,3,20,0.01
2013-12-8,45,34,28,28,24,18,93,67,38,30.35,30.25,10,1,14,0.00
2013-12-9,51,38,29,27,20,12,83,53,30,30.45,30.33,8,1,12,0.00
2013-12-10,53,38,26,31,27,23,90,69,36,30.44,30.23,6,0,8,0.00
2013-12-11,57,40,29,33,29,25,90,69,35,30.26,30.19,5,0,7,0.00
2013-12-12,59,42,29,36,32,27,91,72,39,30.29,30.18,4,0,7,0.00
2013-12-13,60,43,31,38,33,29,95,72,39,30.34,30.24,5,0,7,0.01
2013-12-14,61,43,32,39,33,29,90,71,35,30.41,30.32,5,1,10,0.00
2013-12-15,62,44,32,39,34,28,91,72,42,30.40,30.26,6,1,10,0.00
2013-12-16,67,48,36,39,36,33,90,67,31,30.28,30.14,6,0,7,0.00
2013-12-17,63,48,38,43,39,35,91,73,46,30.20,30.06,5,0,6,0.00
2013-12-18,61,49,41,47,42,37,92,77,42,30.05,29.78,12,1,15,0.00
2013-12-19,60,49,39,45,32,20,92,57,29,29.95,29.73,13,2,19,0.00
2013-12-20,60,47,35,27,19,6,57,38,12,30.02,29.94,9,1,15,0.00
2013-12-21,62,47,36,46,34,25,90,63,32,30.10,29.98,8,1,11,0.00
2013-12-22,66,49,36,41,38,34,93,68,36,30.30,30.11,8,0,12,0.00
2013-12-23,61,47,37,42,38,34,89,72,46,30.39,30.30,8,1,11,0.00
2013-12-24,68,50,38,42,38,35,88,67,37,30.36,30.21,8,1,12,0.00
2013-12-25,64,47,36,44,38,32,92,73,46,30.31,30.21,8,1,9,0.00
2013-12-26,66,47,36,42,36,33,90,69,34,30.27,30.18,7,0,8,0.00
2013-12-27,58,45,35,44,37,31,89,76,54,30.26,30.14,4,0,8,0.00
2013-12-28,67,47,33,37,32,26,92,61,22,30.16,30.03,11,1,18,0.00
2013-12-29,63,50,39,33,27,18,75,45,21,30.20,30.10,12,2,15,0.00
2013-12-30,64,46,34,40,35,30,85,68,38,30.27,30.20,7,0,10,0.00
2013-12-31,62,46,36,39,34,31,88,67,33,30.28,30.16,6,0,12,0.00
2014-1-1,66,47,34,35,32,29,84,61,28,30.22,30.13,6,0,8,0.00
2014-1-2,65,49,37,39,35,32,81,62,35,30.19,30.07,7,1,10,0.00